{"data":{"norad_id":59339,"epoch":"2026-05-25T05:04:30.499104Z","epoch_age_seconds":63595,"freshness":"FRESH","line1":"1 59339U 24057V   26145.21146411  .00000189  00000+0  16398-4 0  9993","line2":"2 59339  42.9996 114.7841 0000729 269.9532  90.1236 15.27579926121547","mean_motion":15.27579926,"eccentricity":7.29e-5,"inclination_deg":42.9996,"raan_deg":114.7841,"arg_perigee_deg":269.9532,"mean_anomaly_deg":90.1236,"bstar":1.6398e-5,"rev_number":12154,"period_min":94.266753280182,"perigee_km":482.54913713973,"apogee_km":483.54949810484,"semimajor_km":6861.1863176223,"source":"CELESTRAK","updated_at":"2026-05-25T13:38:18.906874Z"}}